Suomi 100 (43804 NORAD) Tracking and Keplerian Element Data

This shows tracking and keplerian element data for the satellite.

Feedback or suggestion? Click here.




ElementValue
Catalog43804
NameSuomi 100
Epoch Orbit38611
Epoch Day354.14364145
Epoch Year2025
RAAN50.5471
Inclination97.4476
Eccentricity0.0010831
Argument of Perigee184.7658
Mean Anonmoly175.3478
Mean Motion15.23479607
Decay Rate7.825E-05
L11 43804U 18099AY 25354.14364145 .00007825 00000-0 33049-3 0 9997
L22 43804 97.4476 50.5471 0010831 184.7658 175.3478 15.23479607386110



Live tracking and technical data element details for Suomi 100 (NORAD 43804). Suomi 100 can be tracked NOW for your location showing map with azimuth and elevation plus other details from your city location.







IsCatalogInMostPopularTable: catalog: 43804, numindb: 1418
Update: records affected: 1



GetName: 43804 Suomi 100

Hit Count: updated at: Sat, 07 Feb 2026 22:07:13 GMT